Home > Weather > Kaliningrad > Past weeks

Flag for Russia Past Weather in Kaliningrad, Russia — Yesterday and Last 2 Weeks

Now
66 °F

Passing clouds.


Feels Like: 66 °F
Forecast: 63 / 76 °F
Wind: 1 mph from Northeast

Location: Kaliningrad/Khrabrovo Airport

Current Time: Jul 27, 2016 at 11:27:03 PM

Latest Report: Jul 27, 2016 at 10:30 PM


Visibility: N/A

Pressure: 29.98 "Hg

Humidity: 88%

Dew Point: 63 °F

Location of KaliningradLocation

Past Weather in Kaliningrad — Graph

°F

Kaliningrad Temperature Yesterday

Maximum temperature yesterday: 77 °F (at 10:00 AM)
Minimum temperature yesterday: 59 °F (at 3:00 AM)
Average temperature yesterday: 70 °F

High & Low Weather Summary for the Past Weeks

 TemperatureHumidityPressure
High77 °F (Jul 25, 1:30 PM)100% (Jul 13, 3:00 AM)30.18 "Hg (Jul 13, 3:00 AM)
Low52 °F (Jul 17, 12:00 AM)56% (Jul 16, 5:00 PM)29.50 "Hg (Jul 15, 2:00 AM)
Average65 °F83%30.00 "Hg
* Reported Jul 12 10:00 PM — Jul 27 10:00 PM, Kaliningrad, Weather by CustomWeather, © 2016

Note: Actual official high and low records may vary slightly from our data, if they occured in-between our weather recording intervals... More about our weather records

Advertising

Kaliningrad Weather History for the Previous 24 Hours

Scroll right to see more
 ConditionsComfort  
Time TempWeatherWind HumidityBarometerVisibility
10:00 PM
Wed, Jul 27
66 °FPassing clouds.1 mph88%29.98 "HgN/A
9:30 PM66 °FPassing clouds.3 mph83%29.98 "HgN/A
9:00 PM68 °FPassing clouds.3 mph78%29.98 "HgN/A
8:30 PM68 °FPassing clouds.3 mph78%29.98 "HgN/A
8:00 PM70 °FPassing clouds.6 mph73%29.98 "HgN/A
7:30 PM72 °FPassing clouds.6 mph69%29.98 "HgN/A
7:00 PM72 °FPassing clouds.6 mph69%30.01 "HgN/A
6:30 PM72 °FPassing clouds.6 mph69%30.01 "HgN/A
6:00 PM72 °FPassing clouds.6 mph69%30.01 "HgN/A
5:30 PM72 °FPassing clouds.6 mph69%30.01 "HgN/A
5:00 PM73 °FSunny.8 mph65%30.01 "Hg10 mi
4:30 PM73 °FPassing clouds.6 mph61%30.04 "HgN/A
4:00 PM73 °FPassing clouds.6 mph61%30.04 "HgN/A
3:30 PM73 °FPassing clouds.8 mph61%30.04 "HgN/A
3:00 PM73 °FPassing clouds.6 mph65%30.04 "HgN/A
2:30 PM73 °FPassing clouds.6 mph74%30.07 "HgN/A
1:30 PM73 °FScattered clouds.8 mph69%30.07 "HgN/A
1:00 PM75 °FScattered clouds.6 mph61%30.07 "HgN/A
12:30 PM75 °FScattered clouds.6 mph61%30.07 "HgN/A
12:00 PM75 °FScattered clouds.3 mph65%30.07 "HgN/A
11:30 AM73 °FPassing clouds.6 mph65%30.09 "HgN/A
11:00 AM75 °FPassing clouds.3 mph65%30.09 "HgN/A
10:30 AM73 °FPassing clouds.3 mph69%30.09 "HgN/A
10:00 AM73 °FPassing clouds.3 mph65%30.09 "HgN/A
9:30 AM73 °FPassing clouds.1 mph65%30.09 "HgN/A
9:00 AM72 °FPassing clouds.1 mph69%30.09 "HgN/A
8:30 AM72 °FPassing clouds.1 mph78%30.09 "HgN/A
8:00 AM70 °FPassing clouds.3 mph88%30.09 "Hg6 mi
7:30 AM68 °FPassing clouds.3 mph94%30.09 "Hg5 mi
7:00 AM66 °FScattered clouds.3 mph100%30.09 "Hg4 mi
6:30 AM66 °FScattered clouds.3 mph100%30.09 "Hg4 mi
6:00 AM64 °FFog.3 mph100%30.09 "Hg3 mi
5:30 AM63 °FFog.1 mph100%30.09 "Hg3 mi
5:00 AM63 °FFog.3 mph100%30.07 "Hg2 mi
4:30 AM63 °FFog.3 mph100%30.07 "Hg2 mi
4:00 AM61 °FFog.1 mph100%30.07 "Hg3 mi
3:00 AM64 °FFog.3 mph100%30.07 "Hg2 mi
2:00 AM63 °FFog.3 mph100%30.07 "Hg2 mi
1:00 AM64 °FFog.3 mph100%30.07 "Hg3 mi
12:00 AM63 °FFog.3 mph100%30.07 "Hg3 mi
11:00 PM
Tue, Jul 26
66 °FFog.3 mph94%30.07 "Hg3 mi
Weather by CustomWeather, © 2016

See weather overviewHow to use our weather pages